[[{"header":{"parameterUnit":"m.s-1","parameterCategory":2,"la1":30.2991,"la2":30.254,"lo1":-89.0895,"lo2":-89.0444,"dy":0.0017,"dx":0.0017,"nx":28,"ny":28,"refTime":"2023-06-27T21:00:00:Z","depth":"0","parameterNumber":2,"parameterNumberName":"U-component_of_CURRENTS"},"data":[0,0,0,0,0,0,0,0,0,0,0,0,0,0,0,0,0,0,0,0,0,0,0,0,0,0,0,0,0,0,0,0,0,0,0,0,0,0,0,0,0,0,0,0,0,0,0,0,0,0,0,0,0,0,0,0,0,0,0.3791,0.3792,0,0.3794,0.3794,0.3793,0.3767,0.3766,0.3766,0.3766,0.383,0.3832,0.3834,0,0,0,0,0,0,0,0,0,0,0,0,0,0.376,0.376,0.3791,0.3792,0.3792,0.3794,0.3793,0.3793,0.3767,0.3766,0.3766,0.3766,0.383,0.3832,0.3834,0,0,0,0,0,0,0,0,0,0,0,0,0,0.3764,0.376,0.3791,0.3784,0.3783,0.3794,0.3793,0.3793,0.3767,0.3766,0.3766,0.3766,0.3829,0.3832,0.3834,0.3858,0,0,0.3843,0.3844,0,0,0,0,0,0,0,0,0.3763,0.3764,0.3784,0.3784,0.3784,0.3785,0.3806,0.382,0.3767,0.3767,0.3766,0.3766,0.3825,0.3828,0.382,0.3861,0.3864,0.3843,0.3845,0.3846,0.3847,0,0,0,0,0,0,0,0.3763,0.3764,0.3786,0.3785,0.3785,0.378,0.3779,0.3808,0.3794,0.3767,0.3766,0.3776,0.3824,0.3817,0.3822,0.3865,0.3843,0.3846,0.3848,0.3849,0.403,0.4033,0,0,0,0,0,0,0.3775,0.3764,0.3786,0.3787,0.3779,0.3781,0.378,0.378,0.3792,0.3795,0.3776,0.3775,0.3812,0.3818,0.3824,0.3891,0.3846,0.3849,0.3851,0.4027,0.4031,0.4034,0,0,0,0,0,0,0.3774,0.3777,0.3786,0.3781,0.3782,0.3782,0.3782,0.378,0.3777,0.38,0.3803,0.3776,0.3812,0.382,0.3864,0.3892,0.385,0.3853,0.4024,0.4028,0.4033,0.4001,0,0,0,0,0,0,0.3773,0.3776,0.3776,0.3781,0.3783,0.3791,0.3783,0.3781,0.3786,0.3784,0.3801,0.3806,0.3813,0.386,0.3867,0.3895,0.3855,0.402,0.4026,0.4031,0.3999,0.4005,0.401,0,0,0,0,0,0.3772,0.3773,0.3776,0.3779,0.3784,0.3791,0.3791,0.3786,0.3787,0.3782,0.3808,0.3806,0.3903,0.3864,0.3871,0.3901,0.4017,0.4024,0.4031,0.3996,0.4003,0.4009,0,0,0,0,0,0,0.3754,0.3771,0.3774,0.3779,0.3786,0.3789,0.3785,0.3792,0.3805,0.3804,0.3826,0.3834,0.3894,0.3913,0.3869,0.3981,0.3968,0.3977,0.394,0.3947,0.3952,0.3918,0.3857,0,0,0,0,0,0.3754,0.3752,0.3775,0.3771,0.3779,0.3785,0.3788,0.3787,0.3804,0.3807,0.3822,0.3866,0.393,0.3946,0.3993,0.4035,0.4098,0.4073,0.4078,0.4082,0.4067,0.422,0.4236,0.4057,0.4057,0.4057,0,0,0.3742,0.3752,0.3749,0.3766,0.3767,0.3772,0.3783,0.3785,0.379,0.3817,0.3824,0.3882,0.3952,0.4005,0.4035,0.4017,0.417,0.4091,0.4093,0.4075,0.4229,0.4246,0.4261,0.4062,0.4061,0.4061,0,0,0.3711,0.373,0.3718,0.3733,0.3748,0.3758,0.3765,0.3775,0.3781,0.3809,0.3854,0.3924,0.3979,0.4039,0.4081,0.4153,0.4204,0.4182,0.4161,0.431,0.4325,0.4339,0.4443,0.4467,0.4172,0.4172,0.4172,0,0.3695,0.3688,0.3715,0.3716,0.3726,0.3755,0.3751,0.3768,0.3788,0.3811,0.381,0.3952,0.3999,0.4106,0.4125,0.416,0.424,0.4116,0.4314,0.4329,0.4343,0.4447,0.4473,0.4171,0.4171,0.4172,0.4172,0,0.3664,0.3661,0.3658,0.3668,0.3685,0.3686,0.3726,0.3741,0.3763,0.3791,0.3887,0.3963,0.4054,0.4093,0.4119,0.4256,0.4279,0.4308,0.4281,0.4359,0.4464,0.4492,0.417,0.4171,0.4171,0.4171,0,0,0.3605,0.363,0.3623,0.3625,0.3663,0.367,0.3699,0.374,0.3772,0.3818,0.388,0.3993,0.4048,0.4104,0.4174,0.4274,0.4444,0.4318,0.4326,0.4391,0.4757,0.4741,0.477,0.4514,0.4519,0.4522,0.4787,0,0.3563,0.3551,0.3581,0.357,0.3573,0.3627,0.3656,0.3705,0.3759,0.3827,0.3938,0.4026,0.4055,0.4113,0.4228,0.4406,0.4517,0.4368,0.4696,0.4705,0.4659,0.4802,0.4738,0.4967,0.4815,0.4819,0.4823,0,0.3516,0.3517,0.3501,0.3534,0.3542,0.355,0.3616,0.3646,0.3764,0.3818,0.3929,0.4021,0.4188,0.42,0.4523,0.4432,0.4585,0.4702,0.4717,0.4725,0.4742,0.4871,0.5023,0.48,0.4866,0.4862,0.4859,0,0.3453,0.3459,0.3443,0.3454,0.3502,0.3513,0.3543,0.3637,0.3683,0.3819,0.3883,0.4083,0.42,0.4429,0.465,0.4621,0.4991,0.5,0.5124,0.5124,0.5143,0.5136,0.5091,0.5231,0.523,0.5229,0.5229,0,0.3402,0.3386,0.3411,0.3405,0.3405,0.3461,0.3491,0.3552,0.3666,0.374,0.3878,0.3991,0.4265,0.449,0.4692,0.4995,0.5051,0.5148,0.5212,0.5131,0.512,0.4983,0.4833,0.5239,0.5237,0.5235,0.5234,0,0.3336,0.3349,0.3334,0.3365,0.3372,0.3373,0.3439,0.3476,0.3587,0.3697,0.3744,0.3973,0.4287,0.4545,0.4926,0.5049,0.5191,0.5411,0.5263,0.5304,0.5196,0.5049,0.4928,0.482,0.5626,0.5628,0.5629,0,0.3303,0.3282,0.3287,0.3275,0.3282,0.3298,0.3316,0.3421,0.3477,0.3689,0.3751,0.4044,0.4262,0.4781,0.5095,0.547,0.5252,0.5552,0.5485,0.5193,0.5079,0.4801,0.4698,0.5513,0.5513,0.5513,0.5513,0,0.3236,0.3231,0.3221,0.3197,0.3195,0.3206,0.3248,0.3286,0.3431,0.3541,0.3723,0.3907,0.4417,0.4758,0.5205,0.5449,0.5244,0.5566,0.5341,0.5042,0.4666,0.4592,0.5283,0.5515,0.5514,0.5514,0.5514,0.5514,0.3175,0.3154,0.3134,0.3106,0.31,0.3104,0.3106,0.319,0.3279,0.3438,0.3647,0.3898,0.436,0.5019,0.5242,0.5439,0.5295,0.5345,0.5216,0.4978,0.4767,0.5419,0.5659,0.566,0.5661,0.5661,0.5661,0,0.3091,0.3075,0.3044,0.3006,0.2966,0.3006,0.3048,0.3061,0.3138,0.3341,0.3511,0.3936,0.4326,0.4749,0.5124,0.5051,0.4939,0.4897,0.4487,0.4433,0.5134,0.5018,0.5034,0.5035,0.5035,0.5035,0.5035,0.5035,0.3046,0.2996,0.2981,0.2881,0.2854,0.2824,0.2839,0.2884,0.3006,0.3179,0.3379,0.3606,0.3987,0.4317,0.4469,0.4506,0.4162,0.4015,0.3892,0.4354,0.4383,0.4411,0.4266,0.4125,0.4123,0.3132,0.3124,0.3117]},{"header":{"parameterUnit":"m.s-1","parameterCategory":2,"la1":30.2991,"la2":30.254,"lo1":-89.0895,"lo2":-89.0444,"dy":0.0017,"dx":0.0017,"nx":28,"ny":28,"refTime":"2023-06-27T21:00:00:Z","depth":"0","parameterNumber":3,"parameterNumberName":"V-component_of_CURRENTS"},"data":[0,0,0,0,0,0,0,0,0,0,0,0,0,0,0,0,0,0,0,0,0,0,0,0,0,0,0,0,0,0,0,0,0,0,0,0,0,0,0,0,0,0,0,0,0,0,0,0,0,0,0,0,0,0,0,0,0,0,-0.0379,-0.0379,0,-0.0332,-0.0332,-0.0331,-0.0357,-0.0359,-0.0361,-0.0362,-0.031,-0.0307,-0.0304,0,0,0,0,0,0,0,0,0,0,0,0,0,-0.0433,-0.0431,-0.0379,-0.0379,-0.0379,-0.0333,-0.0332,-0.0331,-0.0357,-0.0359,-0.0361,-0.0363,-0.0311,-0.0308,-0.0304,0,0,0,0,0,0,0,0,0,0,0,0,0,-0.0396,-0.0431,-0.0379,-0.0389,-0.039,-0.0333,-0.0331,-0.033,-0.0357,-0.0359,-0.0362,-0.0364,-0.0312,-0.0308,-0.0303,-0.0226,0,0,-0.029,-0.0288,0,0,0,0,0,0,0,0,-0.0398,-0.0394,-0.0388,-0.0389,-0.0389,-0.0357,-0.0332,-0.0296,-0.0356,-0.0365,-0.0362,-0.0365,-0.0326,-0.032,-0.03,-0.0223,-0.0221,-0.029,-0.0287,-0.0285,-0.0284,0,0,0,0,0,0,0,-0.0401,-0.0396,-0.0357,-0.0388,-0.0388,-0.0376,-0.0374,-0.0324,-0.0329,-0.0364,-0.0367,-0.0368,-0.0326,-0.0305,-0.0299,-0.022,-0.029,-0.0286,-0.0283,-0.0281,-0.0047,-0.0043,0,0,0,0,0,0,-0.0415,-0.0398,-0.0358,-0.0356,-0.0405,-0.0374,-0.0371,-0.0361,-0.0329,-0.0328,-0.0366,-0.0369,-0.0311,-0.0305,-0.0298,-0.018,-0.0285,-0.0281,-0.0278,-0.005,-0.0046,-0.0042,0,0,0,0,0,0,-0.0416,-0.0411,-0.036,-0.038,-0.0373,-0.0371,-0.0359,-0.0359,-0.0345,-0.0331,-0.033,-0.0354,-0.0313,-0.0304,-0.0234,-0.0179,-0.0279,-0.0275,-0.0055,-0.0049,-0.0044,0.0041,0,0,0,0,0,0,-0.0417,-0.0411,-0.0399,-0.038,-0.0373,-0.0308,-0.0357,-0.0357,-0.0343,-0.0347,-0.0319,-0.0317,-0.0314,-0.024,-0.0229,-0.0175,-0.0271,-0.0059,-0.0052,-0.0046,0.0034,0.0049,0.0061,0,0,0,0,0,-0.0419,-0.0385,-0.0398,-0.0394,-0.0359,-0.0306,-0.0298,-0.0304,-0.034,-0.0306,-0.0291,-0.0319,-0.0191,-0.0233,-0.0222,-0.0165,-0.0062,-0.0054,-0.0046,0.0027,0.0046,0.0061,0,0,0,0,0,0,-0.0396,-0.0384,-0.0399,-0.0363,-0.0333,-0.0312,-0.0285,-0.0296,-0.0257,-0.0267,-0.0269,-0.0261,-0.018,-0.0174,-0.0221,-0.0074,-0.0131,-0.0121,-0.0079,-0.0062,-0.0048,-0.0047,-0.0268,0,0,0,0,0,-0.0387,-0.0357,-0.0347,-0.031,-0.0303,-0.0296,-0.0277,-0.0278,-0.0249,-0.0237,-0.022,-0.0188,-0.0131,-0.0103,-0.0057,0.003,0.0001,0.0075,0.0089,0.01,0.0113,0.0118,0.0131,-0.0016,-0.0016,-0.0016,0,0,-0.0368,-0.0356,-0.034,-0.0303,-0.0289,-0.0237,-0.0289,-0.0249,-0.0198,-0.0233,-0.0155,-0.0138,-0.0097,-0.0004,0.0033,0.0004,0.0129,0.0111,0.012,0.0127,0.0127,0.0141,0.0153,-0.001,-0.0011,-0.0012,0,0,-0.03,-0.0305,-0.0259,-0.0231,-0.0204,-0.0189,-0.0179,-0.0152,-0.0136,-0.0056,-0.0069,-0.0017,0.0064,0.0107,0.0138,0.0263,0.0199,0.0275,0.0349,0.0354,0.0365,0.0374,0.0346,0.0352,0.0283,0.0283,0.0284,0,-0.0281,-0.022,-0.0232,-0.0178,-0.0142,-0.0166,-0.0097,-0.0068,-0.0017,0.0013,-0.0019,0.0104,0.0125,0.0243,0.0282,0.0294,0.0265,0.0275,0.0367,0.0376,0.0384,0.0353,0.0358,0.0288,0.0288,0.0287,0.0287,0,-0.0181,-0.0131,-0.0098,-0.0039,0.0003,0.0061,0.0085,0.0129,0.0132,0.0152,0.0247,0.0277,0.0343,0.0366,0.0363,0.0452,0.0401,0.0376,0.0312,0.0403,0.0365,0.0369,0.0296,0.0294,0.0292,0.0291,0,0,-0.0135,-0.0047,-0.0033,0.002,0.008,0.0131,0.0215,0.0293,0.0345,0.0378,0.0461,0.0542,0.0514,0.0549,0.0547,0.0557,0.0581,0.0491,0.0489,0.044,0.0558,0.052,0.0519,0.0554,0.0556,0.0558,0.0503,0,-0.005,0.0076,0.0102,0.0236,0.0302,0.0319,0.0407,0.0467,0.0497,0.0567,0.0582,0.0655,0.0597,0.0628,0.063,0.0605,0.0597,0.0596,0.0498,0.0495,0.0431,0.0526,0.0571,0.0527,0.0506,0.0507,0.0507,0,0.0043,0.0117,0.0254,0.0378,0.0407,0.0481,0.0599,0.0672,0.0742,0.0762,0.0803,0.0794,0.0843,0.0765,0.074,0.0733,0.0654,0.061,0.0606,0.0546,0.0466,0.0438,0.0534,0.0347,0.0512,0.0512,0.0512,0,0.0095,0.0231,0.0346,0.0388,0.0514,0.0582,0.0647,0.0729,0.0798,0.0873,0.0918,0.0942,0.0961,0.0892,0.0793,0.0762,0.0734,0.0678,0.0566,0.056,0.057,0.0563,0.0459,0.0646,0.0646,0.0646,0.0646,0,0.0186,0.0281,0.0375,0.0442,0.0579,0.0639,0.0773,0.0833,0.0922,0.1016,0.1007,0.1081,0.0988,0.0956,0.0843,0.0727,0.0766,0.06,0.0562,0.0602,0.0598,0.0411,0.0294,0.0644,0.0644,0.0645,0.0645,0,0.0244,0.0305,0.0437,0.0566,0.061,0.0704,0.0841,0.0931,0.0997,0.1118,0.1148,0.1182,0.1152,0.1043,0.0936,0.0795,0.0601,0.0629,0.0667,0.0635,0.0342,0.0229,0.0113,0.0057,0.0499,0.0498,0.0498,0,0.0293,0.0366,0.0509,0.0578,0.0641,0.0769,0.0863,0.0961,0.1047,0.1188,0.1255,0.127,0.1318,0.1149,0.0926,0.0732,0.058,0.0598,0.0559,0.0353,0.0198,0.0142,0.0099,0.0596,0.0596,0.0596,0.0596,0,0.0381,0.0421,0.0518,0.0647,0.0752,0.0884,0.1012,0.1092,0.1213,0.1322,0.1448,0.1507,0.1363,0.1235,0.0962,0.08,0.0489,0.0589,0.039,0.0287,0.0209,0.0128,0.0567,0.0597,0.0597,0.0597,0.0597,0.0597,0.0431,0.0502,0.0607,0.0732,0.0849,0.0993,0.1104,0.1238,0.1399,0.1601,0.1614,0.1777,0.1552,0.1213,0.0933,0.0455,0.0439,0.0316,0.02,0.0165,0.0108,0.0528,0.0502,0.0502,0.0501,0.0501,0.0501,0,0.049,0.0569,0.0688,0.0839,0.0965,0.1021,0.1207,0.1327,0.1521,0.1752,0.1895,0.1962,0.163,0.124,0.0593,0.017,0.0051,-0.0054,-0.0119,-0.0141,0.0253,0.0254,0.0158,0.0159,0.0159,0.0159,0.0159,0.0159,0.0529,0.0636,0.0697,0.0905,0.1014,0.1192,0.1302,0.1485,0.1679,0.2003,0.2203,0.2337,0.2046,0.086,0.0017,-0.0192,-0.0462,-0.053,-0.068,-0.0435,-0.0409,-0.0384,-0.0409,-0.0642,-0.0643,-0.0966,-0.097,-0.0973]}],[{"header":{"parameterUnit":"m.s-1","parameterCategory":2,"la1":30.2991,"la2":30.254,"lo1":-89.0895,"lo2":-89.0444,"dy":0.0017,"dx":0.0017,"nx":28,"ny":28,"refTime":"2023-06-27T21:00:00:Z","depth":"2","parameterNumber":2,"parameterNumberName":"U-component_of_CURRENTS"},"data":[0,0,0,0,0,0,0,0,0,0,0,0,0,0,0,0,0,0,0,0,0,0,0,0,0,0,0,0,0,0,0,0,0,0,0,0,0,0,0,0,0,0,0,0,0,0,0,0,0,0,0,0,0,0,0,0,0,0,0.2037,0.2038,0,0.2101,0.2101,0.2102,0.21,0.21,0.2099,0.2098,0.2215,0.2219,0.2222,0,0,0,0,0,0,0,0,0,0,0,0,0,0.1932,0.1933,0.2037,0.2038,0.2039,0.2101,0.2101,0.2102,0.2101,0.21,0.2099,0.2098,0.2214,0.2218,0.2223,0,0,0,0,0,0,0,0,0,0,0,0,0,0.1983,0.1934,0.2037,0.2047,0.2048,0.21,0.2101,0.2102,0.2101,0.21,0.2099,0.2098,0.2212,0.2218,0.2223,0.228,0,0,0.2241,0.2243,0,0,0,0,0,0,0,0,0.198,0.1987,0.2044,0.2046,0.2048,0.2093,0.2107,0.2165,0.2101,0.2079,0.2098,0.2097,0.2181,0.2189,0.22,0.2285,0.229,0.2241,0.2244,0.2247,0.2249,0,0,0,0,0,0,0,0.1977,0.1984,0.2061,0.2045,0.2048,0.2054,0.206,0.2118,0.2135,0.2081,0.2081,0.2091,0.2182,0.2195,0.2203,0.2292,0.2241,0.2246,0.2249,0.2252,0.2511,0.2515,0,0,0,0,0,0,0.1973,0.1981,0.2059,0.2063,0.2012,0.2057,0.2063,0.2078,0.2133,0.2141,0.2092,0.2091,0.2186,0.2197,0.2208,0.2351,0.2247,0.2252,0.2255,0.2508,0.2512,0.2516,0,0,0,0,0,0,0.197,0.1979,0.2056,0.2024,0.2034,0.206,0.2077,0.208,0.2107,0.2142,0.2149,0.2117,0.2185,0.22,0.2291,0.2352,0.2255,0.226,0.2504,0.2509,0.2514,0.2591,0,0,0,0,0,0,0.1967,0.1978,0.1993,0.2024,0.2036,0.2102,0.2078,0.2082,0.2114,0.2114,0.2166,0.2174,0.2186,0.2283,0.2297,0.2359,0.2264,0.2499,0.2506,0.2512,0.2584,0.2599,0.2611,0,0,0,0,0,0.1963,0.1991,0.1993,0.2003,0.2054,0.2104,0.2112,0.2124,0.2117,0.2141,0.2186,0.2173,0.2334,0.2291,0.2306,0.2371,0.2496,0.2504,0.2512,0.2579,0.2596,0.2611,0,0,0,0,0,0,0.1959,0.1995,0.1997,0.2036,0.2073,0.2105,0.213,0.214,0.2192,0.2195,0.222,0.2235,0.2344,0.2351,0.2302,0.2467,0.2413,0.2424,0.2459,0.2475,0.2488,0.2492,0.2269,0,0,0,0,0,0.1964,0.1992,0.2028,0.2063,0.2081,0.2109,0.2132,0.2143,0.2189,0.2209,0.2248,0.2304,0.2389,0.2423,0.2488,0.2574,0.2588,0.2627,0.264,0.2651,0.2668,0.2742,0.2763,0.2542,0.2542,0.2542,0,0,0.197,0.1997,0.2011,0.2063,0.2089,0.2134,0.212,0.2165,0.2212,0.2219,0.2301,0.236,0.2427,0.2531,0.2578,0.2541,0.2725,0.2661,0.267,0.2681,0.2752,0.2774,0.2792,0.2547,0.2546,0.2545,0,0,0.1998,0.2023,0.2052,0.2088,0.2136,0.2162,0.2181,0.2227,0.2257,0.2345,0.2378,0.2471,0.2569,0.2635,0.2683,0.281,0.2801,0.2832,0.2893,0.2965,0.2983,0.2999,0.3046,0.3066,0.2826,0.2827,0.2827,0,0.2004,0.2047,0.2072,0.2115,0.215,0.218,0.2226,0.2273,0.2346,0.2393,0.2381,0.2575,0.2624,0.2775,0.2825,0.284,0.2869,0.2821,0.298,0.2996,0.3011,0.3055,0.3076,0.2831,0.2831,0.283,0.283,0,0.2051,0.209,0.2117,0.2179,0.2224,0.2272,0.2333,0.2389,0.2429,0.2479,0.2627,0.2705,0.2814,0.2857,0.2886,0.3036,0.3019,0.2993,0.293,0.3038,0.3078,0.3098,0.2838,0.2836,0.2835,0.2834,0,0,0.2054,0.213,0.2141,0.2172,0.226,0.2298,0.2396,0.2493,0.2562,0.2648,0.2755,0.2913,0.2948,0.3007,0.3057,0.3128,0.3264,0.3113,0.3114,0.3143,0.3418,0.3248,0.3252,0.3265,0.3269,0.3272,0.3402,0,0.2084,0.215,0.2197,0.2277,0.2317,0.2385,0.2474,0.2569,0.2651,0.2762,0.287,0.2998,0.3007,0.3077,0.3156,0.3254,0.3322,0.3231,0.3325,0.3328,0.3149,0.3272,0.2871,0.294,0.3421,0.3425,0.3427,0,0.2118,0.2157,0.2222,0.2317,0.2344,0.2401,0.2535,0.262,0.2784,0.2858,0.2992,0.3076,0.3248,0.3212,0.3412,0.3355,0.3402,0.3448,0.3453,0.328,0.3194,0.2913,0.2957,0.346,0.3457,0.3455,0.3453,0,0.2092,0.2182,0.2227,0.2259,0.2371,0.2422,0.2494,0.2644,0.2733,0.2923,0.3006,0.3196,0.3297,0.3408,0.3514,0.3482,0.3694,0.3646,0.3533,0.3521,0.3191,0.3141,0.3771,0.3771,0.377,0.377,0.377,0,0.2108,0.2147,0.2209,0.2234,0.2303,0.2395,0.2499,0.2605,0.2771,0.2886,0.3044,0.3171,0.3353,0.3487,0.3562,0.3613,0.3731,0.3575,0.3556,0.3205,0.3158,0.3609,0.3589,0.3775,0.3774,0.3773,0.3772,0,0.2083,0.2122,0.2173,0.2263,0.2288,0.2338,0.2475,0.2555,0.2718,0.2872,0.2944,0.3189,0.3378,0.3519,0.371,0.3644,0.3728,0.3706,0.3272,0.3198,0.3494,0.3477,0.3601,0.3596,0.3592,0.3589,0.3586,0,0.208,0.2096,0.2162,0.2176,0.2212,0.2289,0.2345,0.2512,0.2603,0.2875,0.2947,0.3189,0.3323,0.3518,0.3421,0.3467,0.3707,0.3173,0.3028,0.3514,0.3485,0.3473,0.3461,0.2634,0.2624,0.2615,0.2609,0,0.2069,0.2083,0.2113,0.2128,0.2165,0.2222,0.2312,0.2383,0.2589,0.2727,0.2942,0.3074,0.3146,0.3028,0.3036,0.3002,0.3128,0.2998,0.3653,0.2722,0.2608,0.2577,0.2596,0.2533,0.2541,0.2546,0.255,0.2553,0.2053,0.2056,0.2071,0.2084,0.2109,0.2145,0.2185,0.2302,0.2438,0.2608,0.2794,0.2825,0.2745,0.2526,0.2505,0.2428,0.2598,0.2531,0.2556,0.259,0.2437,0.232,0.2164,0.2169,0.2173,0.2177,0.2181,0,0.2032,0.2024,0.2025,0.203,0.2014,0.2062,0.2151,0.2176,0.2291,0.238,0.2515,0.2149,0.2051,0.2094,0.1754,0.1698,0.1648,0.1767,0.1707,0.1774,0.1836,0.1649,0.1165,0.1165,0.1164,0.1164,0,0,0.2023,0.1998,0.1983,0.1927,0.1925,0.192,0.1959,0.2007,0.2034,0.1958,0.187,0.1954,0.1901,0.1505,0.1418,0.1304,0.1561,0.1234,0.2003,0.1992,0.2056,0.2179,0.1951,0,0,0,0,0]},{"header":{"parameterUnit":"m.s-1","parameterCategory":2,"la1":30.2991,"la2":30.254,"lo1":-89.0895,"lo2":-89.0444,"dy":0.0017,"dx":0.0017,"nx":28,"ny":28,"refTime":"2023-06-27T21:00:00:Z","depth":"2","parameterNumber":3,"parameterNumberName":"V-component_of_CURRENTS"},"data":[0,0,0,0,0,0,0,0,0,0,0,0,0,0,0,0,0,0,0,0,0,0,0,0,0,0,0,0,0,0,0,0,0,0,0,0,0,0,0,0,0,0,0,0,0,0,0,0,0,0,0,0,0,0,0,0,0,0,0.0357,0.0356,0,0.0233,0.0232,0.023,0.0135,0.0134,0.0133,0.0132,-0.0049,-0.0053,-0.0057,0,0,0,0,0,0,0,0,0,0,0,0,0,0.0461,0.0459,0.0357,0.0356,0.0354,0.0233,0.0232,0.023,0.0135,0.0134,0.0133,0.0132,-0.0048,-0.0053,-0.0058,0,0,0,0,0,0,0,0,0,0,0,0,0,0.0383,0.0459,0.0358,0.0293,0.0286,0.0234,0.0231,0.0229,0.0135,0.0134,0.0133,0.0132,-0.0046,-0.0052,-0.0058,-0.0072,0,0,-0.0077,-0.008,0,0,0,0,0,0,0,0,0.0388,0.038,0.0304,0.0298,0.029,0.0199,0.0201,0.0126,0.0135,0.0192,0.0132,0.0131,0.003,0.0018,-0.0004,-0.008,-0.0088,-0.0078,-0.0081,-0.0084,-0.0086,0,0,0,0,0,0,0,0.0394,0.0384,0.0307,0.0303,0.0294,0.0253,0.0241,0.0186,0.0117,0.0187,0.018,0.0168,0.0025,0.0003,-0.0009,-0.0091,-0.0077,-0.0083,-0.0087,-0.0089,-0.0227,-0.0227,0,0,0,0,0,0,0.0415,0.039,0.0311,0.0304,0.0338,0.0252,0.0239,0.0229,0.0119,0.0102,0.0169,0.0164,0.0014,-0.0002,-0.0016,-0.0039,-0.0084,-0.009,-0.0093,-0.0227,-0.0227,-0.0227,0,0,0,0,0,0,0.0417,0.0409,0.0316,0.0344,0.033,0.0252,0.0241,0.0227,0.0201,0.0106,0.0087,0.0158,0.0012,-0.0007,-0.0056,-0.0047,-0.0092,-0.0098,-0.0227,-0.0227,-0.0227,-0.0086,0,0,0,0,0,0,0.0421,0.0411,0.0414,0.0346,0.0329,0.0299,0.0242,0.0225,0.0196,0.0188,0.0091,0.0073,0.001,-0.0046,-0.0062,-0.0056,-0.0103,-0.0227,-0.0227,-0.0227,-0.009,-0.0081,-0.0073,0,0,0,0,0,0.0425,0.0434,0.0416,0.0406,0.0335,0.03,0.0288,0.0228,0.0197,0.0198,0.0131,0.0076,-0.0059,-0.005,-0.0069,-0.0065,-0.0227,-0.0227,-0.0227,-0.0094,-0.0083,-0.0073,0,0,0,0,0,0,0.0477,0.0423,0.0401,0.0393,0.0358,0.0285,0.0277,0.0238,0.0186,0.0174,0.0084,0.0062,0.0021,-0.0043,-0.0032,-0.0109,-0.0156,-0.016,-0.0048,-0.0038,-0.003,0.0008,-0.0108,0,0,0,0,0,0.0494,0.0489,0.0433,0.0429,0.0415,0.035,0.0329,0.029,0.0233,0.0209,0.0143,0.0066,0.0007,-0.003,-0.009,-0.0126,-0.0182,-0.0141,-0.0132,-0.0124,-0.0108,-0.0195,-0.0192,-0.0228,-0.0228,-0.0228,0,0,0.0514,0.0484,0.0481,0.0441,0.0406,0.0399,0.0334,0.031,0.0301,0.0198,0.0168,0.0101,0.0005,-0.0033,-0.0059,-0.0086,-0.0139,-0.0124,-0.0116,-0.0105,-0.0195,-0.0191,-0.0188,-0.0228,-0.0228,-0.0228,0,0,0.0553,0.0527,0.0536,0.0516,0.0475,0.0439,0.0439,0.0376,0.0346,0.0315,0.0234,0.0176,0.009,0.0022,-0.0024,-0.0006,-0.0084,-0.003,0.0041,-0.0042,-0.0039,-0.0038,-0.0075,-0.0077,-0.0031,-0.0031,-0.003,0,0.0577,0.0578,0.0535,0.054,0.0531,0.0465,0.0476,0.0442,0.0372,0.0353,0.0324,0.0196,0.0115,0.0057,0.0064,0.0015,-0.0026,0.0016,-0.0028,-0.0028,-0.0028,-0.0067,-0.0072,-0.0024,-0.0025,-0.0025,-0.0026,0,0.0617,0.0624,0.063,0.0617,0.0607,0.0605,0.0559,0.0542,0.0502,0.0459,0.0406,0.0305,0.0226,0.0189,0.0136,0.009,0.0066,0.0002,-0.0044,-0.0015,-0.0059,-0.0066,-0.0014,-0.0017,-0.0019,-0.002,0,0,0.0648,0.0657,0.0658,0.0673,0.0646,0.0641,0.0641,0.0613,0.0611,0.0546,0.0534,0.0429,0.0375,0.0319,0.0234,0.0167,0.0131,0.0101,0.0093,0.0086,-0.0013,-0.0002,-0.001,0.0062,0.0061,0.006,-0.0029,0,0.0689,0.0725,0.0717,0.0756,0.0768,0.0732,0.074,0.071,0.0673,0.0649,0.0547,0.0502,0.0422,0.039,0.0314,0.0177,0.0113,0.0164,-0.0058,-0.0064,-0.0042,-0.0019,-0.0044,-0.0124,-0.0037,-0.0039,-0.004,0,0.0722,0.0743,0.0788,0.0824,0.0827,0.0842,0.0842,0.0844,0.0796,0.0768,0.0711,0.0635,0.0546,0.0464,0.0266,0.0308,0.0168,0.0059,0.0051,0.0006,-0.0068,-0.0149,-0.0142,-0.0053,-0.0052,-0.0051,-0.005,0,0.075,0.0794,0.0834,0.0843,0.0867,0.0883,0.0896,0.0873,0.0881,0.0844,0.0843,0.0727,0.067,0.0491,0.0295,0.0272,0.0083,0.0003,-0.0117,-0.0117,-0.021,-0.0216,-0.015,-0.015,-0.015,-0.0149,-0.0149,0,0.0786,0.0818,0.0851,0.0871,0.0923,0.0929,0.0973,0.0968,0.097,0.0989,0.0907,0.0897,0.0672,0.0543,0.0342,0.0124,0.011,-0.0085,-0.0142,-0.0158,-0.0157,-0.0166,-0.0166,-0.0153,-0.0152,-0.0151,-0.0151,0,0.0802,0.0824,0.0871,0.0914,0.0934,0.0968,0.1029,0.1062,0.1063,0.1088,0.1085,0.1015,0.087,0.0653,0.0374,0.0192,-0.0031,-0.0118,-0.0082,-0.0132,-0.0187,-0.0179,-0.0264,-0.0264,-0.0264,-0.0265,-0.0265,0,0.0813,0.0836,0.0896,0.0931,0.0952,0.101,0.1055,0.1092,0.1132,0.1158,0.1176,0.1085,0.1037,0.0693,0.0346,0.0027,-0.0012,-0.0201,-0.0269,-0.0152,-0.02,-0.0192,-0.0185,-0.0334,-0.0335,-0.0336,-0.0336,0,0.083,0.0845,0.0885,0.0951,0.1006,0.1086,0.1156,0.1204,0.1253,0.1301,0.1352,0.1336,0.1027,0.0699,0.0289,0.0073,-0.0144,-0.0224,-0.0147,-0.0282,-0.0222,-0.0267,-0.0258,-0.0342,-0.0341,-0.0341,-0.0341,-0.034,0.0833,0.086,0.0909,0.0973,0.1047,0.1151,0.122,0.1317,0.1419,0.1521,0.1491,0.1409,0.0993,0.0429,0.0145,-0.0166,-0.0184,-0.0346,-0.0344,-0.0341,-0.0313,-0.0256,-0.0375,-0.0375,-0.0374,-0.0374,-0.0374,0,0.0832,0.087,0.0934,0.1017,0.11,0.1143,0.1279,0.1367,0.1507,0.1568,0.1642,0.1139,0.0817,0.041,-0.009,-0.0361,-0.0371,-0.0406,-0.0408,-0.0403,-0.0398,-0.0372,-0.0451,-0.0451,-0.0451,-0.0451,0,0,0.0834,0.0879,0.0916,0.104,0.1106,0.1219,0.1301,0.1461,0.1513,0.155,0.1433,0.1353,0.0756,0.0352,0.0007,-0.0214,-0.0213,-0.0226,-0.0151,-0.0106,-0.0096,-0.0369,-0.0325,0,0,0,0,0]}],[{"header":{"parameterUnit":"m.s-1","parameterCategory":2,"la1":30.2991,"la2":30.254,"lo1":-89.0895,"lo2":-89.0444,"dy":0.0017,"dx":0.0017,"nx":28,"ny":28,"refTime":"2023-06-27T21:00:00:Z","depth":"4","parameterNumber":2,"parameterNumberName":"U-component_of_CURRENTS"},"data":[0,0,0,0,0,0,0,0,0,0,0,0,0,0,0,0,0,0,0,0,0,0,0,0,0,0,0,0,0,0,0,0,0,0,0,0,0,0,0,0,0,0,0,0,0,0,0,0,0,0,0,0,0,0,0,0,0,0,0.054,0.0542,0,0.0669,0.0671,0.0673,0.0813,0.0815,0.0817,0.0819,0.094,0.0941,0.0942,0,0,0,0,0,0,0,0,0,0,0,0,0,0.039,0.0393,0.054,0.0542,0.0543,0.0669,0.0671,0.0673,0.0813,0.0815,0.0817,0.0819,0.0939,0.0941,0.0943,0,0,0,0,0,0,0,0,0,0,0,0,0,0.0482,0.0393,0.054,0.0627,0.0636,0.0669,0.0671,0.0674,0.0812,0.0815,0.0818,0.082,0.0938,0.0941,0.0943,0.09,0,0,0.0949,0.095,0,0,0,0,0,0,0,0,0.0477,0.0488,0.0613,0.0621,0.0631,0.0727,0.0663,0.0748,0.0811,0.0747,0.0819,0.0822,0.0864,0.0873,0.0893,0.0905,0.091,0.095,0.0951,0.0952,0.0953,0,0,0,0,0,0,0,0.047,0.0483,0.0593,0.0614,0.0625,0.0651,0.0668,0.068,0.0789,0.0753,0.0763,0.0774,0.087,0.0891,0.0897,0.0912,0.095,0.0952,0.0953,0.0954,0.1015,0.1015,0,0,0,0,0,0,0.045,0.0477,0.0589,0.0597,0.0558,0.0652,0.067,0.0694,0.0789,0.0806,0.0771,0.078,0.0886,0.0894,0.0902,0.0984,0.0952,0.0954,0.0955,0.1015,0.1015,0.1015,0,0,0,0,0,0,0.0447,0.0459,0.0583,0.0538,0.0555,0.0651,0.0677,0.0695,0.0787,0.0804,0.0822,0.0852,0.0888,0.0899,0.0962,0.0985,0.0955,0.0957,0.1014,0.1015,0.1015,0.1066,0,0,0,0,0,0,0.0442,0.0457,0.05,0.0537,0.0557,0.063,0.0675,0.0696,0.0784,0.0799,0.0876,0.0887,0.0891,0.0959,0.0964,0.0988,0.0959,0.1014,0.1015,0.1015,0.1064,0.1069,0.1072,0,0,0,0,0,0.0436,0.0483,0.0501,0.0516,0.0602,0.063,0.0644,0.0721,0.0786,0.0818,0.088,0.0889,0.0966,0.0961,0.0968,0.0992,0.1014,0.1014,0.1015,0.1063,0.1068,0.1072,0,0,0,0,0,0,0.0456,0.0502,0.0523,0.0587,0.0614,0.0655,0.0719,0.0755,0.0832,0.0884,0.0902,0.0915,0.0973,0.0972,0.0966,0.1007,0.0987,0.0989,0.102,0.1025,0.1029,0.1055,0.096,0,0,0,0,0,0.0469,0.0522,0.0542,0.0602,0.0626,0.0681,0.0721,0.0766,0.0821,0.0865,0.0919,0.0962,0.0965,0.0994,0.1007,0.1038,0.1022,0.1052,0.1056,0.106,0.1083,0.1049,0.1052,0.1018,0.1018,0.1018,0,0,0.0492,0.053,0.0561,0.061,0.0659,0.0695,0.0717,0.0799,0.0847,0.0859,0.0986,0.0989,0.0976,0.101,0.1035,0.1025,0.1062,0.1061,0.1064,0.1085,0.105,0.1053,0.1056,0.1018,0.1018,0.1018,0,0,0.0536,0.0604,0.0644,0.0672,0.0739,0.0765,0.0797,0.0869,0.0931,0.1006,0.1018,0.1041,0.1094,0.1071,0.106,0.1092,0.1083,0.1101,0.115,0.1116,0.1119,0.1121,0.1112,0.1113,0.1105,0.1105,0.1105,0,0.0562,0.0622,0.0659,0.0699,0.0746,0.0802,0.0848,0.0898,0.0987,0.1027,0.1065,0.1114,0.1112,0.1098,0.1113,0.1102,0.1097,0.1134,0.1122,0.1124,0.1125,0.1116,0.1116,0.1107,0.1107,0.1107,0.1107,0,0.0595,0.0675,0.0716,0.0782,0.0824,0.0893,0.0937,0.1012,0.1099,0.1131,0.119,0.1183,0.1205,0.1189,0.1171,0.1168,0.1166,0.1129,0.1113,0.1132,0.112,0.112,0.1111,0.111,0.1109,0.1109,0,0,0.0595,0.071,0.0741,0.0792,0.089,0.0924,0.1012,0.1075,0.1139,0.1215,0.1275,0.127,0.1286,0.1274,0.1239,0.1213,0.1212,0.1196,0.1193,0.1195,0.117,0.1047,0.1035,0.118,0.118,0.118,0.1161,0,0.0626,0.0718,0.077,0.0884,0.094,0.1013,0.1075,0.1143,0.1215,0.1286,0.1282,0.1329,0.1307,0.1326,0.1297,0.1232,0.1214,0.1223,0.1147,0.1145,0.1037,0.103,0.118,0.116,0.116,0.116,0.116,0,0.0651,0.0717,0.0828,0.0946,0.0977,0.1055,0.1177,0.1233,0.1308,0.1359,0.1401,0.1412,0.1405,0.138,0.1309,0.1326,0.1273,0.1216,0.1213,0.1084,0.102,0.1134,0.1159,0.1159,0.1159,0.1159,0.1159,0,0.0641,0.0771,0.0875,0.0919,0.1036,0.1121,0.1198,0.1286,0.1335,0.1428,0.147,0.1469,0.1487,0.1421,0.1323,0.1338,0.1221,0.1213,0.1053,0.1045,0.1142,0.114,0.1163,0.1163,0.1163,0.1163,0.1163,0,0.0652,0.0746,0.0901,0.0956,0.1072,0.1159,0.1277,0.1341,0.1427,0.1442,0.1526,0.1478,0.1503,0.1432,0.1343,0.1183,0.1236,0.1068,0.1023,0.1165,0.1165,0.1142,0.114,0.1163,0.1163,0.1163,0.1163,0,0.0628,0.0735,0.0852,0.1015,0.1081,0.1173,0.1328,0.1366,0.148,0.1504,0.154,0.153,0.1394,0.1367,0.1234,0.1198,0.1054,0.0979,0.1148,0.1112,0.0916,0.0917,0.0847,0.0843,0.0839,0.0835,0.0833,0,0.0616,0.0682,0.0885,0.0964,0.1066,0.121,0.1273,0.1391,0.1397,0.1439,0.1393,0.1355,0.1303,0.105,0.1003,0.0881,0.0842,0.0883,0.0907,0.0916,0.088,0.0888,0.0894,0.0826,0.0825,0.0824,0.0823,0,0.0568,0.0676,0.0761,0.093,0.1048,0.1116,0.1216,0.1188,0.1254,0.1392,0.1235,0.1178,0.1017,0.0889,0.0838,0.0716,0.0931,0.0842,0.0851,0.0873,0.089,0.086,0.087,0.0809,0.0811,0.0813,0.0813,0,0.0546,0.0578,0.072,0.085,0.1,0.0993,0.1027,0.101,0.103,0.1092,0.0981,0.0903,0.0927,0.0786,0.0659,0.0618,0.0614,0.0695,0.0712,0.0727,0.069,0.0694,0.0513,0,0,0,0,0,0.0502,0.0518,0.0619,0.074,0.089,0.096,0.0975,0.0974,0.1012,0.0888,0.0963,0.0782,0.0665,0.0578,0.0494,0.0544,0.0586,0.0453,0.0683,0.0733,0.0749,0.0714,0,0,0,0,0,0,0.0465,0.055,0.0564,0.0652,0.0726,0.0811,0.0798,0.0785,0.07,0.077,0.0643,0.0829,0.063,0.071,0.0512,0.0505,0.0655,0.0455,0.0456,0.0724,0.0738,0.0751,0.0721,0,0,0,0,0]},{"header":{"parameterUnit":"m.s-1","parameterCategory":2,"la1":30.2991,"la2":30.254,"lo1":-89.0895,"lo2":-89.0444,"dy":0.0017,"dx":0.0017,"nx":28,"ny":28,"refTime":"2023-06-27T21:00:00:Z","depth":"4","parameterNumber":3,"parameterNumberName":"V-component_of_CURRENTS"},"data":[0,0,0,0,0,0,0,0,0,0,0,0,0,0,0,0,0,0,0,0,0,0,0,0,0,0,0,0,0,0,0,0,0,0,0,0,0,0,0,0,0,0,0,0,0,0,0,0,0,0,0,0,0,0,0,0,0,0,0.0175,0.0174,0,0.0053,0.0051,0.0049,-0.0049,-0.0049,-0.005,-0.005,-0.0223,-0.0227,-0.0231,0,0,0,0,0,0,0,0,0,0,0,0,0,0.0225,0.0225,0.0175,0.0174,0.0173,0.0053,0.0051,0.0049,-0.0049,-0.0049,-0.005,-0.005,-0.0222,-0.0227,-0.0232,0,0,0,0,0,0,0,0,0,0,0,0,0,0.0158,0.0225,0.0175,0.0115,0.0108,0.0054,0.0051,0.0048,-0.0049,-0.0049,-0.005,-0.0051,-0.022,-0.0226,-0.0232,-0.0259,0,0,-0.0252,-0.0254,0,0,0,0,0,0,0,0,0.0162,0.0155,0.0124,0.0119,0.0112,0.0022,0.0005,-0.0055,-0.0049,0.0004,-0.005,-0.0051,-0.0141,-0.0154,-0.0184,-0.0267,-0.0274,-0.0252,-0.0256,-0.0259,-0.0261,0,0,0,0,0,0,0,0.0167,0.0159,0.012,0.0124,0.0116,0.006,0.005,-0.0007,-0.0069,-0.0,-0.0006,-0.001,-0.0146,-0.0177,-0.0189,-0.0277,-0.0252,-0.0258,-0.0262,-0.0264,-0.0438,-0.0439,0,0,0,0,0,0,0.02,0.0165,0.0124,0.0117,0.0143,0.0061,0.0049,0.0046,-0.0068,-0.0083,-0.0009,-0.0014,-0.0166,-0.0181,-0.0195,-0.0287,-0.0259,-0.0265,-0.0268,-0.0437,-0.0439,-0.0439,0,0,0,0,0,0,0.0202,0.0198,0.0129,0.0143,0.0131,0.0062,0.0059,0.0044,-0.0009,-0.0072,-0.0091,-0.0049,-0.0167,-0.0186,-0.0272,-0.0292,-0.0268,-0.0273,-0.0437,-0.0438,-0.0439,-0.0435,0,0,0,0,0,0,0.0204,0.0199,0.0195,0.0145,0.0132,0.0084,0.006,0.0043,-0.0006,-0.0014,-0.0112,-0.0128,-0.0169,-0.0262,-0.0278,-0.03,-0.0278,-0.0435,-0.0437,-0.0439,-0.0434,-0.0436,-0.0438,0,0,0,0,0,0.0206,0.0209,0.0196,0.0191,0.0134,0.0084,0.007,0.0015,-0.0007,-0.0036,-0.0105,-0.0126,-0.0282,-0.0268,-0.0287,-0.0311,-0.0435,-0.0437,-0.0438,-0.0433,-0.0436,-0.0438,0,0,0,0,0,0,0.0225,0.0199,0.0183,0.0177,0.013,0.007,0.0043,0.0006,-0.0072,-0.009,-0.015,-0.0171,-0.0252,-0.028,-0.0263,-0.0364,-0.0357,-0.0362,-0.0347,-0.0349,-0.0351,-0.0343,-0.0283,0,0,0,0,0,0.0234,0.0225,0.0186,0.0174,0.0158,0.0096,0.0066,0.0023,-0.0041,-0.0077,-0.0148,-0.0215,-0.027,-0.0309,-0.0369,-0.043,-0.043,-0.0452,-0.0454,-0.0455,-0.046,-0.0471,-0.0474,-0.0446,-0.0446,-0.0446,0,0,0.0237,0.0222,0.0215,0.0177,0.0137,0.01,0.0073,0.002,-0.0024,-0.0083,-0.0178,-0.0234,-0.0289,-0.0361,-0.0397,-0.039,-0.0462,-0.0458,-0.0459,-0.0463,-0.0474,-0.0476,-0.0478,-0.0447,-0.0447,-0.0446,0,0,0.0234,0.0227,0.0212,0.0176,0.0122,0.0088,0.0072,-0.0007,-0.0053,-0.0144,-0.0187,-0.0253,-0.0359,-0.0393,-0.0421,-0.0466,-0.0474,-0.0486,-0.0491,-0.0501,-0.0503,-0.0505,-0.0496,-0.0497,-0.0483,-0.0483,-0.0483,0,0.0236,0.0218,0.0195,0.0165,0.0139,0.0085,0.005,-0.0002,-0.0108,-0.0141,-0.0176,-0.0318,-0.0368,-0.0424,-0.0446,-0.0469,-0.0473,-0.0477,-0.0502,-0.0504,-0.0506,-0.0496,-0.0497,-0.0483,-0.0483,-0.0483,-0.0483,0,0.0215,0.0195,0.0183,0.0136,0.01,0.0062,0.0005,-0.0051,-0.0112,-0.0166,-0.0258,-0.0336,-0.041,-0.0434,-0.0464,-0.0503,-0.0499,-0.0504,-0.0492,-0.0508,-0.0497,-0.0498,-0.0483,-0.0483,-0.0483,-0.0483,0,0,0.0238,0.0181,0.0177,0.0153,0.0083,0.0055,-0.0005,-0.0066,-0.0097,-0.021,-0.0259,-0.0365,-0.0407,-0.044,-0.048,-0.0501,-0.0518,-0.0515,-0.0516,-0.0497,-0.0533,-0.0505,-0.0503,-0.0531,-0.0531,-0.0532,-0.0513,0,0.0226,0.0189,0.0154,0.0106,0.0082,0.0027,-0.0015,-0.0081,-0.0144,-0.0207,-0.0282,-0.0349,-0.0405,-0.0438,-0.0476,-0.0517,-0.0525,-0.0522,-0.0528,-0.0527,-0.0494,-0.0505,-0.0534,-0.0514,-0.0515,-0.0515,-0.0515,0,0.0215,0.0196,0.0161,0.0107,0.0093,0.0056,0.0002,-0.005,-0.0131,-0.0183,-0.0262,-0.0322,-0.0393,-0.0424,-0.05,-0.05,-0.0518,-0.054,-0.0539,-0.0518,-0.0503,-0.05,-0.0517,-0.0517,-0.0517,-0.0517,-0.0517,0,0.0255,0.0198,0.0182,0.016,0.0094,0.0069,0.0029,-0.0043,-0.0062,-0.0158,-0.0178,-0.029,-0.0325,-0.0396,-0.0464,-0.0484,-0.0521,-0.0541,-0.0524,-0.0521,-0.0551,-0.055,-0.0565,-0.0565,-0.0565,-0.0565,-0.0565,0,0.0256,0.024,0.0204,0.0192,0.0175,0.0107,0.0085,0.0026,-0.0025,-0.0036,-0.0155,-0.0191,-0.032,-0.0365,-0.0441,-0.0487,-0.0498,-0.0526,-0.052,-0.0549,-0.0547,-0.0551,-0.055,-0.0564,-0.0564,-0.0564,-0.0564,0,0.0281,0.0259,0.0245,0.0202,0.0192,0.0177,0.0141,0.0129,0.0071,0.0057,0.0036,-0.0095,-0.0187,-0.0279,-0.0375,-0.0425,-0.0485,-0.0481,-0.0485,-0.0478,-0.0484,-0.0483,-0.0482,-0.0481,-0.048,-0.0479,-0.0478,0,0.0279,0.0282,0.0276,0.0281,0.0259,0.0242,0.0234,0.0178,0.0185,0.0111,0.0117,0.002,-0.0072,-0.0206,-0.0317,-0.0425,-0.0437,-0.0444,-0.0502,-0.0485,-0.0478,-0.0479,-0.0479,-0.0477,-0.0477,-0.0477,-0.0476,0,0.028,0.0296,0.0294,0.0329,0.0329,0.0326,0.032,0.0323,0.0271,0.027,0.0165,0.0049,-0.0042,-0.0208,-0.0262,-0.0351,-0.0446,-0.0436,-0.0439,-0.0494,-0.0479,-0.0474,-0.0475,-0.0473,-0.0474,-0.0474,-0.0474,0,0.0295,0.03,0.0325,0.0345,0.0378,0.0369,0.035,0.033,0.0316,0.0259,0.0226,0.0064,-0.0012,-0.0165,-0.0236,-0.0306,-0.0344,-0.0368,-0.0376,-0.0381,-0.0369,-0.0336,-0.028,0,0,0,0,0,0.0302,0.0305,0.0328,0.0346,0.0398,0.0409,0.0399,0.0379,0.0366,0.031,0.0266,0.0161,-0.0018,-0.0128,-0.0196,-0.0219,-0.0342,-0.0297,-0.0371,-0.0457,-0.046,-0.0463,0,0,0,0,0,0,0.029,0.0327,0.0321,0.0363,0.039,0.042,0.0401,0.0375,0.0335,0.0307,0.0193,0.0187,-0.0002,0.0041,-0.0181,-0.0204,-0.0254,-0.0364,-0.0365,-0.0455,-0.0458,-0.0461,-0.0465,0,0,0,0,0]}]]